Home   Weather   Jaipur   Past weeks

Flag for India Past Weather in Jaipur, Rajasthan, India — Yesterday and Last 2 Weeks

Now
88 °F

Passing clouds.


Feels Like: 88 °F
Forecast: 78 / 102 °F
Wind: No wind

Location: Jaipur / Sanganer

Current Time: May 24, 2017 at 12:22:52 am

Latest Report: May 23, 2017 at 11:30 pm


Visibility: 2 mi

Pressure: 29.71 "Hg

Humidity: 43%

Dew Point: 63 °F

Location of JaipurLocation

Past Weather in Jaipur — Graph

°F

Jaipur Temperature Yesterday

Maximum temperature yesterday: 102 °F (at 3:30 pm)
Minimum temperature yesterday: 81 °F (at 4:30 am)
Average temperature yesterday: 92 °F

High & Low Weather Summary for the Past Weeks

 TemperatureHumidityPressure
High109 °F (May 9, 3:30 pm)73% (May 22, 5:05 am)29.86 "Hg (May 22, 5:05 am)
Low72 °F (May 22, 5:05 am)7% (May 19, 4:00 pm)29.53 "Hg (May 16, 6:30 pm)
Average95 °F24%29.71 "Hg
* Reported May 8 10:30 pm — May 23 11:00 pm, Jaipur. Weather by CustomWeather, © 2017

Note: Actual official high and low records may vary slightly from our data, if they occured in-between our weather recording intervals... More about our weather records

Advertising

Jaipur Weather History for the Previous 24 Hours

Scroll right to see more
 ConditionsComfort  
Time TempWeatherWind HumidityBarometerVisibility
11:00 pm
Tue, May 23
90 °FPassing clouds.3 mph41%29.71 "Hg2 mi
10:30 pm90 °FPassing clouds.No wind38%29.71 "Hg2 mi
10:00 pm90 °FPassing clouds.No wind41%29.71 "Hg2 mi
9:30 pm90 °FPassing clouds.1 mph38%29.71 "Hg2 mi
9:00 pm91 °FPassing clouds.5 mph36%29.71 "Hg2 mi
8:30 pm91 °FPassing clouds.1 mph36%29.71 "Hg2 mi
8:00 pm91 °FPassing clouds.6 mph18%29.71 "Hg2 mi
7:30 pm91 °FScattered clouds.6 mph36%29.71 "Hg2 mi
7:00 pm95 °FScattered clouds.8 mph26%29.71 "Hg2 mi
6:30 pm95 °FScattered clouds.8 mph26%29.68 "Hg2 mi
6:00 pm97 °FScattered clouds.5 mph25%29.65 "Hg2 mi
5:30 pm95 °FScattered clouds.8 mph28%29.65 "Hg2 mi
5:00 pm97 °FScattered clouds.10 mph25%29.65 "Hg2 mi
4:30 pm100 °FScattered clouds.8 mph24%29.68 "Hg2 mi
4:00 pm102 °FScattered clouds.8 mph20%29.68 "Hg2 mi
3:30 pm102 °FScattered clouds.8 mph21%29.68 "Hg2 mi
3:00 pm100 °FScattered clouds.9 mph22%29.71 "Hg2 mi
2:30 pm100 °FScattered clouds.6 mph24%29.74 "Hg2 mi
2:00 pm100 °FScattered clouds.9 mph22%29.74 "Hg2 mi
1:30 pm100 °FScattered clouds.8 mph24%29.74 "Hg2 mi
1:00 pm99 °FScattered clouds.10 mph25%29.77 "Hg2 mi
12:30 pm99 °FScattered clouds.9 mph25%29.77 "Hg2 mi
12:00 pm97 °FScattered clouds.9 mph27%29.80 "Hg3 mi
11:30 am97 °FScattered clouds.6 mph28%29.80 "Hg3 mi
11:00 am97 °FHaze.3 mph28%29.80 "Hg2 mi
10:30 am95 °FHaze.7 mph30%29.80 "Hg2 mi
10:00 am93 °FHaze.5 mph32%29.83 "Hg2 mi
9:30 am93 °FHaze.6 mph34%29.80 "Hg2 mi
9:00 am91 °FHaze.6 mph36%29.80 "Hg2 mi
8:30 am90 °FHaze.6 mph38%29.83 "Hg2 mi
8:00 am90 °FHaze.5 mph38%29.80 "Hg2 mi
7:30 am88 °FHaze.1 mph40%29.80 "Hg2 mi
6:30 am84 °FHaze.3 mph45%29.77 "Hg2 mi
6:00 am82 °FHaze.1 mph48%29.77 "Hg2 mi
5:30 am82 °FHaze.2 mph48%29.74 "Hg2 mi
5:00 am82 °FHaze.No wind48%29.74 "Hg2 mi
4:30 am81 °FHaze.No wind51%29.74 "Hg2 mi
3:00 am84 °FHaze.No wind45%29.74 "Hg2 mi
2:00 am84 °FHaze.No wind43%29.74 "Hg2 mi
1:00 am86 °FHaze.3 mph40%29.77 "Hg2 mi
12:00 am86 °FHaze.3 mph40%29.77 "Hg2 mi
Weather by CustomWeather, © 2017

See weather overviewHow to use our weather pages